Regional Weather Roundup
Issued by NWS Goodland, KS

Home | Current Version | Previous Version | Graphics & Text | Print | Product List | Glossary On
Versions: 1 2 3 4 5 6 7 8 9 10 11 12 13 14 15 16 17 18 19 20 21 22 23 24 25 26 27 28 29 30 31 32 33 34 35 36 37 38 39 40 41 42 43 44 45 46 47 48 49 50
000
ASUS43 KGLD 072259
RWRGLD

GOODLAND FORECAST AREA HOURLY WEATHER ROUNDUP
NATIONAL WEATHER SERVICE GOODLAND KS
500 PM MDT TUE JUL 07 2015

...OFFICIAL OBSERVATIONS...

CITY           SKY/WX    TMP DP  RH WIND       PRES   REMARKS
GOODLAND KS    MOSUNNY   75  43  31 SE10      30.12F
HILL CITY KS   MOSUNNY   76  48  37 E8        30.09F
IMPERIAL NEB   CLOUDY    73  47  39 SE14      30.12S
MCCOOK NEB     MOSUNNY   76  50  40 E13       30.11F
AKRON CO       CLOUDY    71  47  42 SE20      30.13F
BURLINGTON CO  CLOUDY    74  42  31 S12G18    30.14S
LIMON CO       CLOUDY    67  49  52 S15G22    30.17F
$$

...UNOFFICIAL OBSERVATIONS...

CITY           SKY/WX    TMP DP  RH WIND       PRES   REMARKS
COLBY KS       SUNNY     79  50  36 E5        30.13S
GOVE KS          N/A     77  32  19 MISG        N/A
NORTON KS      SUNNY     75  39  27 E6        30.09F
SHARON SPRINGS   N/A     76  46  34 SE9G18      N/A
KIT CARSON CO    N/A     74  45  35 MISG        N/A
$$



USA.gov is the U.S. government's official web portal to all federal, state and local government web resources and services.